map of ZAL home
ZAL - Airport
Location
City:  Valdivia, Los Ríos, Chile
Name:Pichoy Airport
ICAO:SCVD
IATA:ZAL

Details
Type:Airport (Aerodrome, Airfield)
Use:Public/Civil
Latitude:39°38'58"S (-39.649443)
Longitude:73°05'11"W (-73.086388)
Elevation:59 ft (18 m)
Variation:7.35°E (WMM2015 magnetic declination)
-0.12° annual change
Runways:1
Longest:6890 × 148 ft (2100 × 45 m), paved

Time
Time Zone:UTC-4 (DST-3)
Local Time:

Weather
METAR:SCVD 201500Z VRB04KT 9999 SCT051 14/07 Q1021
TAF:SCVD 201012Z 2012/2024 VRB02KT CAVOK TN07/2012Z TX15/2019Z
BECMG 2013/2015 35006KT SCT040

Related Locations
Nearby:
Farthest:WUA: 12436 mi / 20014 km
Wuhai [Wuhai Regional], 15, CN

Find:

   beyond  
but within

Other Information
Maps:
NOTAMs:
Links:
Sources:

  
  • flag of Chile
  • flag of Los Ríos
  

Sectional Chart

Flight Planning
at skyvector.com

Satellite Image

Google Maps Satellite view

 

Copyright © 2004-2018 Karl L. Swartz. All rights reserved.
The Great Circle Mapper name and logo are trademarks of the Great Circle Mapper.
All other trademarks mentioned herein belong to their respective owners.
Please see credits for attibutions and further copyright information.

  Follow gcmap on Facebook Follow gcmap on Twitter Follow gcmap on Google+ GCmap on LinkedIn

hCard Microformat

Geo Microformat